This is the latest recevied weather packets stored in our database for station/object EA1IOK-13. If no packets are shown the sender has not sent any weather packets the latest 10 day(s).
| Time | Temp. | Humidity | Pressure | Rain* | Wind** | Luminosity | Snow |
|---|---|---|---|---|---|---|---|
| 1777572278 | 16.67° C | 79% | 1016.8 hPa | 0 mm | - | - | - |
| 1777571371 | 17.22° C | 77% | 1016.8 hPa | 0 mm | - | - | - |
| 1777570471 | 17.22° C | 76% | 1016.8 hPa | 0 mm | - | - | - |
| 1777569571 | 17.22° C | 76% | 1016.7 hPa | 0 mm | - | - | - |
| 1777568671 | 17.22° C | 74% | 1016.7 hPa | 0 mm | - | - | - |
| 1777567772 | 17.22° C | 76% | 1016.5 hPa | 0 mm | - | - | - |
| 1777566872 | 17.78° C | 76% | 1016.5 hPa | 0 mm | - | - | - |
| 1777565971 | 17.78° C | 74% | 1016.4 hPa | 0 mm | - | - | - |
| 1777565073 | 18.33° C | 73% | 1016.4 hPa | 0 mm | - | - | - |
| 1777564172 | 18.33° C | 73% | 1016.3 hPa | 0 mm | - | - | - |
| 1777563271 | 18.33° C | 73% | 1016.2 hPa | 0 mm | - | - | - |
| 1777562371 | 18.33° C | 71% | 1016.3 hPa | 0 mm | - | - | - |
| 1777561471 | 18.89° C | 72% | 1016.2 hPa | 0 mm | - | - | - |
| 1777560571 | 18.89° C | 72% | 1016.2 hPa | 0 mm | - | - | - |
| 1777559670 | 18.33° C | 78% | 1016.2 hPa | 0 mm | - | - | - |
| 1777558773 | 18.33° C | 75% | 1016.3 hPa | 0 mm | - | - | - |
| 1777557872 | 17.78° C | 74% | 1016.4 hPa | 0 mm | - | - | - |
| 1777556971 | 17.78° C | 74% | 1016.3 hPa | 0 mm | - | - | - |
| 1777556071 | 18.33° C | 73% | 1016.2 hPa | 0 mm | - | - | - |
| 1777555172 | 18.33° C | 72% | 1016.3 hPa | 0 mm | - | - | - |
| 1777553372 | 18.89° C | 76% | 1016.2 hPa | 0 mm | - | - | - |
| 1777552471 | 18.33° C | 76% | 1016.3 hPa | 0 mm | - | - | - |
| 1777551571 | 17.78° C | 76% | 1016.3 hPa | 0 mm | - | - | - |
| 1777550670 | 17.22° C | 78% | 1016.3 hPa | 0 mm | - | - | - |
| 1777549772 | 17.78° C | 78% | 1016.2 hPa | 0 mm | - | - | - |
* Rain latest hour (hover to see other rain measurements)
** Current wind speed in m/s (hover to see current wind gust speed)